Zurück zum Katalog

CZ-6A DEB

AktivPO
NORAD 64637·DEBRIS·🇨🇳 China

Gestartet Aug 6, 2024 von Taiyuan Satellite Launch Center

Loading…

Nächste Überflüge (nächste 24 Stunden)

TLE

AktuellSource: Space-Track

Epoche: Sep 13, 2026, 23:40 UTC

1 64637U 24140AEB 26256.98661904  .00003973  00000-0  12753-2 0  9993
2 64637  89.0060 263.5020 0009392 187.0093 173.0979 14.39277006104178

Verfolge CZ-6A DEB in Echtzeit mit AllMySat

Download on the App Store